GLO1346 SBSP-SBVT

Flight info

Callsign GLO1346
Flight time 1h 4m
Altitude 37000
Route UREMI UZ42 CXI DCT SEGLI DCT TODET
Aircraft B738/M-SDE2E3FGHIRWXY/LB1

Departure

Time 2026-05-01 12:35
Airport Congonhas–Deputado Freitas Nobre Airport (SBSP)

Arrival

Time 2026-05-01 13:39
Airport Eurico de Aguiar Salles International Airport (SBVT)
Time Latitude Longitude Altitude Speed Heading
2026-05-01 12:13 -23.62538 -46.65944 2599 ft 0 kts 237°
2026-05-01 12:26 -23.62531 -46.65931 2599 ft 4 kts 239°
2026-05-01 12:26 -23.62522 -46.65907 2600 ft 4 kts 291°
2026-05-01 12:27 -23.62536 -46.65893 2600 ft 4 kts 327°
2026-05-01 12:27 -23.62543 -46.65888 2600 ft 0 kts 327°
2026-05-01 12:30 -23.62480 -46.65909 2600 ft 8 kts
2026-05-01 12:30 -23.62427 -46.65921 2600 ft 8 kts 332°
2026-05-01 12:30 -23.62381 -46.65951 2599 ft 8 kts 329°
2026-05-01 12:31 -23.62337 -46.65981 2599 ft 7 kts 327°
2026-05-01 12:31 -23.62296 -46.66011 2599 ft 7 kts 327°
2026-05-01 12:31 -23.62254 -46.66038 2599 ft 7 kts 334°
2026-05-01 12:31 -23.62211 -46.66061 2592 ft 7 kts 328°
2026-05-01 12:32 -23.62171 -46.66089 2598 ft 7 kts 328°
2026-05-01 12:32 -23.62124 -46.66121 2591 ft 0 kts 327°
2026-05-01 12:33 -23.62122 -46.66123 2592 ft 2 kts 328°
2026-05-01 12:33 -23.62084 -46.66137 2593 ft 9 kts 356°
2026-05-01 12:33 -23.62034 -46.66092 2595 ft 10 kts 96°
2026-05-01 12:34 -23.62063 -46.66065 2592 ft 0 kts 147°
2026-05-01 12:34 -23.62066 -46.66063 2592 ft 8 kts 147°
2026-05-01 12:34 -23.62380 -46.65845 2601 ft 97 kts 148°
2026-05-01 12:35 -23.63168 -46.65279 2637 ft 169 kts 146°
2026-05-01 12:35 -23.64225 -46.64560 3477 ft 183 kts 145°
2026-05-01 12:35 -23.65282 -46.63741 4580 ft 186 kts 136°
2026-05-01 12:35 -23.66082 -46.62548 5145 ft 206 kts 108°
2026-05-01 12:36 -23.66546 -46.61003 5643 ft 221 kts 105°
2026-05-01 12:36 -23.67095 -46.59353 5935 ft 249 kts 110°
2026-05-01 12:36 -23.67907 -46.57570 6222 ft 274 kts 116°
2026-05-01 12:36 -23.68853 -46.55698 6771 ft 289 kts 117°
2026-05-01 12:37 -23.69823 -46.53787 7660 ft 289 kts 117°
2026-05-01 12:37 -23.70795 -46.51853 8560 ft 292 kts 117°
2026-05-01 12:37 -23.71705 -46.49861 9390 ft 296 kts 106°
2026-05-01 12:37 -23.71905 -46.47667 10228 ft 296 kts 84°
2026-05-01 12:38 -23.71630 -46.45375 10761 ft 311 kts 81°
2026-05-01 12:38 -23.71269 -46.42948 10992 ft 334 kts 80°
2026-05-01 12:38 -23.70877 -46.40400 11519 ft 345 kts 80°
2026-05-01 12:38 -23.70483 -46.37800 12171 ft 351 kts 80°
2026-05-01 12:39 -23.70091 -46.35152 12899 ft 354 kts 81°
2026-05-01 12:39 -23.69701 -46.32476 13583 ft 359 kts 81°
2026-05-01 12:39 -23.69315 -46.29796 14180 ft 365 kts 81°
2026-05-01 12:39 -23.68922 -46.27045 14834 ft 367 kts 81°
2026-05-01 12:40 -23.68526 -46.24279 15443 ft 371 kts 81°
2026-05-01 12:40 -23.68126 -46.21480 16033 ft 375 kts 81°
2026-05-01 12:40 -23.67721 -46.18653 16647 ft 379 kts 81°
2026-05-01 12:40 -23.67312 -46.15801 17243 ft 383 kts 81°
2026-05-01 12:41 -23.66858 -46.12918 17822 ft 387 kts 75°
2026-05-01 12:41 -23.65832 -46.10191 18393 ft 389 kts 62°
2026-05-01 12:41 -23.64599 -46.07538 18923 ft 393 kts 61°
2026-05-01 12:41 -23.63350 -46.04870 19429 ft 396 kts 62°
2026-05-01 12:42 -23.62100 -46.02183 19961 ft 399 kts 62°
2026-05-01 12:42 -23.60860 -45.99496 20472 ft 403 kts 62°
2026-05-01 12:42 -23.59604 -45.96752 20979 ft 406 kts 62°
2026-05-01 12:42 -23.58337 -45.93969 21467 ft 410 kts 62°
2026-05-01 12:43 -23.57065 -45.91171 21952 ft 414 kts 62°
2026-05-01 12:43 -23.55784 -45.88348 22430 ft 417 kts 62°
2026-05-01 12:43 -23.54490 -45.85498 22928 ft 420 kts 62°
2026-05-01 12:43 -23.53190 -45.82639 23404 ft 423 kts 62°
2026-05-01 12:44 -23.51877 -45.79751 23861 ft 427 kts 62°
2026-05-01 12:44 -23.50568 -45.76873 24230 ft 430 kts 62°
2026-05-01 12:44 -23.47891 -45.70996 24975 ft 436 kts 62°
2026-05-01 12:45 -23.45170 -45.65028 25714 ft 442 kts 62°
2026-05-01 12:45 -23.43797 -45.62018 26075 ft 445 kts 62°
2026-05-01 12:45 -23.42412 -45.58985 26431 ft 448 kts 62°
2026-05-01 12:46 -23.41016 -45.55930 26789 ft 452 kts 62°
2026-05-01 12:46 -23.39626 -45.52892 27140 ft 454 kts 62°
2026-05-01 12:46 -23.38387 -45.49716 27459 ft 460 kts 72°
2026-05-01 12:46 -23.37627 -45.46319 27818 ft 463 kts 77°
2026-05-01 12:47 -23.36986 -45.42866 28163 ft 465 kts 78°
2026-05-01 12:47 -23.36339 -45.39404 28482 ft 468 kts 77°
2026-05-01 12:47 -23.35637 -45.35934 28795 ft 471 kts 76°
2026-05-01 12:47 -23.34896 -45.32451 29097 ft 474 kts 76°
2026-05-01 12:48 -23.34132 -45.28928 29420 ft 477 kts 76°
2026-05-01 12:48 -23.33370 -45.25410 29738 ft 479 kts 76°
2026-05-01 12:48 -23.32603 -45.21863 30046 ft 482 kts 76°
2026-05-01 12:48 -23.31834 -45.18301 30339 ft 484 kts 76°
2026-05-01 12:49 -23.31072 -45.14764 30608 ft 486 kts 76°
2026-05-01 12:49 -23.30298 -45.11182 30886 ft 487 kts 76°
2026-05-01 12:49 -23.29523 -45.07592 31142 ft 489 kts 76°
2026-05-01 12:49 -23.28737 -45.03960 31384 ft 492 kts 76°
2026-05-01 12:50 -23.27951 -45.00332 31622 ft 494 kts 76°
2026-05-01 12:50 -23.27164 -44.96702 31953 ft 492 kts 75°
2026-05-01 12:50 -23.26377 -44.93078 32269 ft 492 kts 76°
2026-05-01 12:50 -23.25588 -44.89452 32558 ft 493 kts 76°
2026-05-01 12:51 -23.24797 -44.85820 32920 ft 492 kts 76°
2026-05-01 12:51 -23.24010 -44.82207 33311 ft 491 kts 76°
2026-05-01 12:51 -23.22441 -44.75021 33873 ft 493 kts 75°
2026-05-01 12:52 -23.21646 -44.71387 34174 ft 493 kts 75°
2026-05-01 12:52 -23.20060 -44.64143 34794 ft 491 kts 75°
2026-05-01 12:52 -23.19275 -44.60531 35060 ft 491 kts 76°
2026-05-01 12:53 -23.17762 -44.53259 35441 ft 494 kts 76°
2026-05-01 12:53 -23.16975 -44.49619 35718 ft 493 kts 76°
2026-05-01 12:53 -23.16174 -44.46009 36129 ft 489 kts 75°
2026-05-01 12:54 -23.15373 -44.42427 36495 ft 486 kts 75°
2026-05-01 12:54 -23.13770 -44.35264 36760 ft 492 kts 76°
2026-05-01 12:54 -23.12964 -44.31649 36981 ft 492 kts 76°
2026-05-01 12:55 -23.11625 -44.25632 37174 ft 495 kts 76°
2026-05-01 12:55 -23.10813 -44.21985 37196 ft 496 kts 76°
2026-05-01 12:56 -23.09195 -44.14724 37184 ft 492 kts 76°
2026-05-01 12:56 -23.07589 -44.07535 37180 ft 488 kts 76°
2026-05-01 12:57 -23.05986 -44.00382 37187 ft 486 kts 76°
2026-05-01 12:57 -23.03590 -43.89718 37176 ft 485 kts 76°
2026-05-01 12:58 -23.01988 -43.82603 37186 ft 485 kts 76°
2026-05-01 12:59 -22.99572 -43.71915 37191 ft 486 kts 75°
2026-05-01 12:59 -22.95896 -43.61700 37184 ft 490 kts 65°
2026-05-01 13:00 -22.91764 -43.51523 37181 ft 491 kts 65°
2026-05-01 13:01 -22.87727 -43.41278 37185 ft 492 kts 66°
2026-05-01 13:02 -22.83697 -43.31052 37165 ft 494 kts 66°
2026-05-01 13:07 -22.45543 -42.66709 37205 ft 483 kts 55°
2026-05-01 13:07 -22.43686 -42.63681 37195 ft 482 kts 55°
2026-05-01 13:08 -22.39979 -42.57641 37194 ft 482 kts 55°
2026-05-01 13:08 -22.36268 -42.51601 37203 ft 482 kts 55°
2026-05-01 13:09 -22.32574 -42.45595 37208 ft 482 kts 55°
2026-05-01 13:09 -22.28836 -42.39576 37204 ft 481 kts 53°
2026-05-01 13:10 -22.24838 -42.33788 37207 ft 481 kts 51°
2026-05-01 13:10 -22.20743 -42.28082 37211 ft 480 kts 51°
2026-05-01 13:11 -22.16667 -42.22367 37195 ft 480 kts 51°
2026-05-01 13:11 -22.12620 -42.16643 37204 ft 480 kts 51°
2026-05-01 13:12 -22.08570 -42.10902 37192 ft 481 kts 51°
2026-05-01 13:12 -22.04542 -42.05199 37194 ft 480 kts 51°
2026-05-01 13:13 -22.00470 -41.99442 37183 ft 479 kts 51°
2026-05-01 13:13 -21.96453 -41.93770 37186 ft 479 kts 51°
2026-05-01 13:14 -21.92413 -41.88072 37180 ft 479 kts 51°
2026-05-01 13:14 -21.88360 -41.82361 37138 ft 480 kts 51°
2026-05-01 13:14 -21.86318 -41.79487 36651 ft 484 kts 51°
2026-05-01 13:15 -21.84284 -41.76625 36146 ft 481 kts 51°
2026-05-01 13:15 -21.82246 -41.73759 35572 ft 482 kts 51°
2026-05-01 13:15 -21.80202 -41.70885 34937 ft 484 kts 51°
2026-05-01 13:15 -21.78152 -41.68006 34294 ft 486 kts 51°
2026-05-01 13:16 -21.76092 -41.65113 33576 ft 487 kts 51°
2026-05-01 13:16 -21.74029 -41.62217 32887 ft 488 kts 51°
2026-05-01 13:16 -21.71963 -41.59319 32183 ft 488 kts 51°
2026-05-01 13:17 -21.65809 -41.50694 30504 ft 482 kts 51°
2026-05-01 13:17 -21.63772 -41.47842 29941 ft 479 kts 51°
2026-05-01 13:18 -21.59751 -41.42218 28836 ft 470 kts 51°
2026-05-01 13:18 -21.57772 -41.39451 28293 ft 465 kts 51°
2026-05-01 13:18 -21.55810 -41.36710 27796 ft 461 kts 52°
2026-05-01 13:18 -21.53864 -41.33991 27293 ft 456 kts 52°
2026-05-01 13:19 -21.51936 -41.31300 26807 ft 452 kts 52°
2026-05-01 13:19 -21.50025 -41.28638 26287 ft 448 kts 51°
2026-05-01 13:19 -21.45511 -41.24083 25095 ft 444 kts 37°
2026-05-01 13:20 -21.43082 -41.22050 24557 ft 442 kts 37°
2026-05-01 13:20 -21.40668 -41.20015 24042 ft 439 kts 37°
2026-05-01 13:20 -21.38326 -41.17995 23508 ft 436 kts 38°
2026-05-01 13:21 -21.33676 -41.13892 22437 ft 427 kts 38°
2026-05-01 13:21 -21.31395 -41.11870 21941 ft 423 kts 38°
2026-05-01 13:21 -21.29138 -41.09876 21447 ft 419 kts 38°
2026-05-01 13:21 -21.26893 -41.07900 20942 ft 415 kts 38°
2026-05-01 13:22 -21.24671 -41.05948 20478 ft 411 kts 38°
2026-05-01 13:22 -21.22461 -41.04008 19994 ft 408 kts 38°
2026-05-01 13:22 -21.20272 -41.02086 19518 ft 405 kts 38°
2026-05-01 13:22 -21.18096 -41.00174 19039 ft 403 kts 38°
2026-05-01 13:23 -21.15961 -40.98299 18580 ft 401 kts 38°
2026-05-01 13:23 -21.13813 -40.96413 18056 ft 398 kts 38°
2026-05-01 13:23 -21.11680 -40.94540 17573 ft 394 kts 38°
2026-05-01 13:23 -21.09569 -40.92689 17101 ft 390 kts 38°
2026-05-01 13:24 -21.07476 -40.90853 16634 ft 386 kts 38°
2026-05-01 13:24 -21.05409 -40.89042 16186 ft 383 kts 38°
2026-05-01 13:24 -21.03357 -40.87245 15735 ft 379 kts 38°
2026-05-01 13:25 -20.99298 -40.83690 14825 ft 374 kts 38°
2026-05-01 13:25 -20.97292 -40.81934 14370 ft 371 kts 39°
2026-05-01 13:25 -20.95300 -40.80190 13922 ft 368 kts 39°
2026-05-01 13:25 -20.93327 -40.78464 13435 ft 365 kts 39°
2026-05-01 13:26 -20.91371 -40.76753 12974 ft 361 kts 39°
2026-05-01 13:26 -20.89435 -40.75060 12534 ft 357 kts 39°
2026-05-01 13:26 -20.87549 -40.73411 12102 ft 353 kts 39°
2026-05-01 13:26 -20.85634 -40.71737 11668 ft 349 kts 40°
2026-05-01 13:27 -20.83783 -40.70120 11247 ft 346 kts 40°
2026-05-01 13:27 -20.81928 -40.68500 10875 ft 342 kts 40°
2026-05-01 13:27 -20.78847 -40.64899 10568 ft 319 kts 55°
2026-05-01 13:28 -20.76383 -40.61134 10286 ft 300 kts 56°
2026-05-01 13:28 -20.75214 -40.59354 10144 ft 292 kts 56°
2026-05-01 13:29 -20.72907 -40.55882 9582 ft 286 kts 55°
2026-05-01 13:29 -20.70597 -40.52438 8930 ft 284 kts 55°
2026-05-01 13:30 -20.66033 -40.45676 7752 ft 276 kts 55°
2026-05-01 13:31 -20.63798 -40.42372 7170 ft 273 kts 54°
2026-05-01 13:31 -20.60472 -40.37459 6271 ft 270 kts 54°
2026-05-01 13:32 -20.58282 -40.34227 5680 ft 267 kts 54°
2026-05-01 13:33 -20.55002 -40.29389 4651 ft 268 kts 54°
2026-05-01 13:33 -20.52827 -40.26188 4148 ft 261 kts 53°
2026-05-01 13:34 -20.49854 -40.24464 3781 ft 246 kts
2026-05-01 13:34 -20.46533 -40.24844 3372 ft 236 kts 353°
2026-05-01 13:35 -20.43421 -40.25337 2951 ft 212 kts 353°
2026-05-01 13:35 -20.42002 -40.25559 2755 ft 201 kts 353°
2026-05-01 13:35 -20.39356 -40.25958 2386 ft 182 kts 353°
2026-05-01 13:36 -20.38136 -40.26139 2196 ft 174 kts 353°
2026-05-01 13:36 -20.36953 -40.26315 2063 ft 169 kts 354°
2026-05-01 13:36 -20.34749 -40.26642 1746 ft 150 kts 353°
2026-05-01 13:37 -20.33741 -40.26791 1557 ft 145 kts 353°
2026-05-01 13:37 -20.33071 -40.26890 1412 ft 142 kts 353°
2026-05-01 13:37 -20.31783 -40.27080 1173 ft 136 kts 353°
2026-05-01 13:37 -20.30856 -40.27215 963 ft 137 kts 352°
2026-05-01 13:38 -20.28940 -40.27503 645 ft 138 kts 352°
2026-05-01 13:38 -20.27984 -40.27643 414 ft 140 kts 352°
2026-05-01 13:38 -20.27344 -40.27738 259 ft 140 kts 351°
2026-05-01 13:39 -20.26388 -40.27878 46 ft 134 kts 352°
2026-05-01 13:39 -20.25611 -40.27994 36 ft 60 kts 352°
2026-05-01 13:39 -20.25315 -40.28037 33 ft 31 kts 352°
2026-05-01 13:39 -20.25230 -40.28086 30 ft 11 kts 274°
2026-05-01 13:40 -20.25265 -40.28128 29 ft 6 kts 214°
2026-05-01 13:40 -20.25304 -40.28156 28 ft 7 kts 214°
2026-05-01 13:40 -20.25351 -40.28187 27 ft 8 kts 210°
2026-05-01 13:40 -20.25408 -40.28200 28 ft 8 kts 176°
2026-05-01 13:41 -20.25466 -40.28193 31 ft 8 kts 172°
2026-05-01 13:41 -20.25522 -40.28185 33 ft 8 kts 172°
2026-05-01 13:41 -20.25576 -40.28176 34 ft 8 kts 171°
2026-05-01 13:41 -20.25633 -40.28167 35 ft 9 kts 171°
2026-05-01 13:42 -20.25699 -40.28157 33 ft 11 kts 172°
2026-05-01 13:42 -20.25759 -40.28148 34 ft 5 kts 172°
2026-05-01 13:42 -20.25800 -40.28142 34 ft 7 kts 172°
2026-05-01 13:42 -20.25862 -40.28133 33 ft 11 kts 172°
2026-05-01 13:43 -20.25943 -40.28121 35 ft 13 kts 172°
2026-05-01 13:43 -20.26039 -40.28108 32 ft 14 kts 172°
2026-05-01 13:43 -20.26137 -40.28094 34 ft 14 kts 172°
2026-05-01 13:43 -20.26231 -40.28081 32 ft 13 kts 173°
2026-05-01 13:44 -20.26310 -40.28079 34 ft 10 kts 204°
2026-05-01 13:44 -20.26349 -40.28114 34 ft 5 kts 200°
2026-05-01 13:44 -20.26385 -40.28117 34 ft 5 kts 176°
2026-05-01 13:44 -20.26420 -40.28114 32 ft 5 kts 174°
2026-05-01 13:45 -20.26453 -40.28110 34 ft 5 kts 172°
2026-05-01 13:45 -20.26489 -40.28104 34 ft 6 kts 171°
2026-05-01 13:45 -20.26526 -40.28113 31 ft 6 kts 237°
2026-05-01 13:45 -20.26530 -40.28139 34 ft 1 kts 262°
2026-05-01 13:46 -20.26531 -40.28149 34 ft 2 kts 262°
2026-05-01 13:46 -20.26533 -40.28166 34 ft 0 kts 261°
2026-05-01 13:46 -20.26534 -40.28168 34 ft 0 kts 261°